Location: *
(55.5817°S, 142.4781°W)
Time: 06:13:03
(UTC+00:00)

Cosmos 1844 Rocket - Pass Details

Date: 29 April 2025
Orbit: 822 x 845 km, 71.0° (Epoch: 23 May)

Event Time Altitude Azimuth Distance (km) Brightness Sun altitude
Exits shadow 13:40:52 15° 201° (SSW) 2,124 4.7 -27.0°
Maximum altitude 13:44:51 33° 144° (SE) 1,397 4.2 -26.4°
Drops below altitude 10° 13:49:52 10° 81° (E) 2,447 6.0 -25.7°
Sets 13:52:33 0° 70° (ENE) 3,375 6.7 -25.4°
